Weather History for KDAY - October, 2012

Change the Weather History Date:

Friday, October 19, 2012

  Actual Average Record
Temperature  
Mean Temperature 50 °F 53 °F  
Max Temperature 54 °F 63 °F 84 °F (1953)
Min Temperature 46 °F 43 °F 23 °F (1992)
Degree Days  
Heating Degree Days 15 12  
Month to date heating degree days 229 185  
Since 1 July heating degree days 339 275  
Cooling Degree Days 0 0  
Month to date cooling degree days 1 10  
Year to date cooling degree days 1256 891  
Moisture  
Dew Point 40 °F    
Average Humidity 72    
Maximum Humidity 93    
Minimum Humidity 50    
Precipitation  
Precipitation 0.13 in 0.09 in 1.92 in (2011)
Month to date precipitation 2.40 1.83  
Year to date precipitation 26.62 33.44  
Snow  
Snow 0.00 in 0.10 in 4.80 in (1989)
Month to date snowfall 0.0 0.1  
Since 1 July snowfall 0.0 0.1  
Since 1 September snowfall 0.0 0.1  
Snow Depth 0.00 in    
Sea Level Pressure  
Sea Level Pressure 29.64 in    
Wind  
Wind Speed 10 mph (SSW)    
Max Wind Speed 21 mph    
Max Gust Speed 24 mph    
Visibility 9 miles    
Events Rain    
T = Trace of Precipitation, MM = Missing Value Source: NWS Daily Summary

Daily Weather History Graph

Daily Weather History Graph

Search for Another Location

Airport or City:

Trip Planner

Search our weather history database for the weather conditions in past years. The results will help you decide how hot, cold, wet, or windy it might be!

Date:

Astronomy

Oct. 19, 2012 Rise Set
Actual Time 7:51 AM EDT 6:50 PM EDT
Civil Twilight 7:24 AM EDT 7:18 PM EDT
Nautical Twilight 6:53 AM EDT 7:49 PM EDT
Astronomical Twilight 6:21 AM EDT 8:20 PM EDT
Moon 12:33 PM EDT (10/19) 10:28 PM EDT (10/19)
Length of Visible Light 11h 53m
Length of Day
10h 58m
Waxing Crescent, 23% of the Moon is Illuminated
Oct 19
Waxing Crescent
Oct 21
First Quarter
Oct 29
Full
Nov 6
Last Quarter
Nov 13
New

Hourly Weather History & Observations

Time (EDT) Temp. Windchill Dew Point Humidity Pressure Visibility Wind Dir Wind Speed Gust Speed Precip Events Conditions
12:56 AM 48.2 °F - 35.6 °F 62% 29.66 in 10.0 mi South 8.1 mph - N/A   Partly Cloudy
1:56 AM 50.0 °F - 34.0 °F 54% 29.65 in 10.0 mi South 8.1 mph - N/A   Partly Cloudy
2:56 AM 48.9 °F - 34.0 °F 56% 29.63 in 10.0 mi South 8.1 mph - N/A   Scattered Clouds
3:56 AM 50.0 °F - 34.0 °F 54% 29.62 in 10.0 mi SSE 9.2 mph - N/A   Mostly Cloudy
4:56 AM 48.9 °F - 35.1 °F 59% 29.60 in 10.0 mi SSE 8.1 mph - N/A   Mostly Cloudy
5:56 AM 52.0 °F - 34.0 °F 50% 29.60 in 10.0 mi South 11.5 mph - N/A   Overcast
6:56 AM 51.1 °F - 34.0 °F 52% 29.62 in 10.0 mi South 11.5 mph - N/A   Overcast
7:56 AM 50.0 °F - 35.1 °F 57% 29.61 in 10.0 mi SSE 8.1 mph - N/A   Overcast
8:56 AM 50.0 °F - 36.0 °F 59% 29.60 in 10.0 mi SSE 10.4 mph - N/A   Overcast
9:56 AM 51.1 °F - 36.0 °F 56% 29.61 in 10.0 mi South 10.4 mph - N/A   Overcast
10:56 AM 52.0 °F - 36.0 °F 54% 29.61 in 10.0 mi South 10.4 mph - N/A   Overcast
11:56 AM 54.0 °F - 37.9 °F 55% 29.61 in 10.0 mi SW 9.2 mph - N/A   Overcast
12:56 PM 52.0 °F - 39.9 °F 63% 29.61 in 10.0 mi SW 8.1 mph - 0.00 in Rain Light Rain
1:56 PM 51.1 °F - 42.1 °F 71% 29.59 in 10.0 mi WSW 6.9 mph - 0.00 in Rain Light Rain
2:56 PM 50.0 °F - 42.8 °F 76% 29.60 in 10.0 mi WSW 10.4 mph - N/A Rain Light Rain
3:56 PM 48.0 °F - 45.0 °F 89% 29.62 in 6.0 mi SW 10.4 mph - 0.04 in Rain Light Rain
4:56 PM 48.2 °F - 44.6 °F 87% 29.62 in 10.0 mi SSW 15.0 mph 23.0 mph N/A Rain Light Rain
5:17 PM 46.4 °F 39.8 °F 44.6 °F 93% 29.63 in 6.0 mi SW 16.1 mph - 0.02 in Rain Light Rain
5:44 PM 46.4 °F 39.5 °F 42.8 °F 87% 29.64 in 10.0 mi SW 17.3 mph 24.2 mph 0.03 in Rain Light Rain
5:56 PM 46.0 °F 41.0 °F 43.0 °F 89% 29.65 in 10.0 mi SW 10.4 mph - 0.03 in Rain Light Rain
6:56 PM 46.0 °F 41.4 °F 44.1 °F 93% 29.66 in 10.0 mi SSW 9.2 mph - 0.01 in Rain Light Rain
7:21 PM 46.4 °F 41.9 °F 44.6 °F 93% 29.65 in 10.0 mi SSW 9.2 mph - 0.00 in Rain Light Rain
7:56 PM 46.0 °F 41.9 °F 45.0 °F 96% 29.67 in 4.0 mi SSW 8.1 mph - 0.00 in Rain Light Rain
8:12 PM 46.4 °F 40.4 °F 44.6 °F 93% 29.67 in 10.0 mi SW 13.8 mph - 0.00 in   Overcast
8:31 PM 46.4 °F 40.4 °F 44.6 °F 93% 29.67 in 10.0 mi SW 13.8 mph - 0.01 in   Overcast
8:56 PM 46.9 °F - 45.0 °F 93% 29.68 in 10.0 mi SSW 15.0 mph 19.6 mph 0.01 in   Overcast
9:56 PM 46.4 °F 41.1 °F 44.6 °F 93% 29.68 in 10.0 mi SSW 11.5 mph - N/A   Overcast
10:33 PM 46.4 °F 40.7 °F 44.6 °F 93% 29.69 in 10.0 mi SW 12.7 mph - N/A   Overcast
10:56 PM 46.9 °F - 44.1 °F 90% 29.69 in 10.0 mi SW 12.7 mph - N/A   Overcast
11:56 PM 46.9 °F - 44.1 °F 90% 29.70 in 10.0 mi SW 12.7 mph - 0.00 in   Overcast